Regional Weather Roundup
Issued by NWS Wilmington, NC

Home | Current Version | Previous Version | Text Only | Print | Product List | Glossary On
Versions: 1 2 3 4 5 6 7 8 9 10 11 12 13 14 15 16 17 18 19 20 21 22 23 24 25 26 27 28
000
ASUS42 KILM 190813
RWRILM
RWRILM
REGIONAL HOURLY WEATHER ROUNDUP
NATIONAL WEATHER SERVICE WILMINGTON NC
400 AM EDT THU OCT 19 2017

NOTE: "FAIR" INDICATES FEW OR NO CLOUDS BELOW 12,000 FEET WITH NO
SIGNIFICANT WEATHER AND/OR OBSTRUCTIONS TO VISIBILITY.

...............WFO WILMINGTON COUNTY WARNING AREA...............

......COASTAL NC AND SC COUNTIES......

CITY           SKY/WX    TMP DP  RH WIND       PRES   REMARKS
WILMINGTON     CLEAR     57  54  89 N8        30.24F
N MYRTLE BEACH CLEAR     56  53  90 N8        30.23F
MYRTLE BEACH   CLEAR     58  53  84 N8        30.25S

......INLAND NC AND SC COUNTIES.......

CITY           SKY/WX    TMP DP  RH WIND       PRES   REMARKS
LUMBERTON      CLEAR     49  47  93 N12       30.27S
ELIZABETHTOWN  NOT AVBL
WHITEVILLE     CLEAR     54  52  93 CALM      30.25F
FLORENCE       CLEAR     51  46  83 N7        30.26F
DARLINGTON     CLEAR     47  43  86 CALM      30.28F
KINGSTREE      FAIR      50  48  93 CALM      30.25F
HARTSVILLE     FAIR      50  43  76 N3        30.27S
BENNETTSVILLE  FAIR      43  43 100 CALM      30.28S
CONWAY         FAIR      50  50 100 CALM      30.25F
GEORGETOWN     FAIR      55  55 100 N5        30.24F
MARION         FAIR     N/A N/A N/A N3        30.26F

....................REST OF NORTH CAROLINA......................

.........EASTERN NC.........

CITY           SKY/WX    TMP DP  RH WIND       PRES   REMARKS
CAPE HATTERAS  PTCLDY    67  63  87 NE8       30.24F
JACKSONVILLE   CLEAR     54  52  93 NE5       30.26F
MOREHEAD CITY  CLEAR     62  60  93 N9        30.24S
KENANSVILLE    CLEAR     48  46  93 CALM      30.27F
NEW BERN       CLEAR     59  57  93 N5        30.27F
ELIZABETH CITY CLEAR     59  56  89 N6        30.28F

.........CENTRAL NC.........

CITY           SKY/WX    TMP DP  RH WIND       PRES   REMARKS
RALEIGH DURHAM PTCLDY    43  43 100 CALM      30.30S
ROCKY MOUNT    CLEAR     47  47 100 CALM      30.29F FOG
ROANOKE RAPIDS NOT AVBL
FAYETTEVILLE   CLEAR     49  47  93 N7        30.27F
HOFFMAN        CLEAR     41  40  97 N5        30.29S

.........WESTERN NC.........

CITY           SKY/WX    TMP DP  RH WIND       PRES   REMARKS
CHARLOTTE      CLEAR     46  46 100 CALM      30.29F
GREENSBORO     CLEAR     44  41  89 CALM      30.29F
HICKORY        NOT AVBL
BOONE          NOT AVBL
ASHEVILLE      NOT AVBL

.....................REST OF SOUTH CAROLINA.....................

.........EASTERN SC.........

CITY           SKY/WX    TMP DP  RH WIND       PRES   REMARKS
CHARLESTON     CLEAR     57  53  86 N6        30.22F
BEAUFORT MCAS  CLEAR     60  56  86 MISG      30.21F
HILTON HEAD    CLEAR     66  57  72 NE10      30.20F

.........CENTRAL SC.........

CITY           SKY/WX    TMP DP  RH WIND       PRES   REMARKS
COLUMBIA       CLEAR     46  44  93 CALM      30.26F
ORANGEBURG     CLEAR     47  44  90 CALM      30.25F
SUMTER SHAW    CLEAR     50  42  74 NE6       30.24F

.........WESTERN SC.........

CITY           SKY/WX    TMP DP  RH WIND       PRES   REMARKS
GREENVILLE     NOT AVBL
ROCK HILL      CLEAR     41  41 100 CALM      30.29F
ANDERSON       CLEAR     44  42  93 CALM      30.29S
CLEMSON        NOT AVBL
GREENWOOD      CLEAR     41  41 100 N3        30.30S


...................COASTAL AND OFFSHORE REPORTS..................

................LOCAL PIERS AND NC RESERVE................


STATION/POSITION TIME  SKY/WX   TEMP    WIND        PRES    VSBY
                                AIR SEA DIR/SP/G
                 (UTC)          (F)     (DEG/KT/KT) (MB)    (MI)
JOHNY MRCER PIER 0748            59 74  360/ 10/ 12 1022.8F
NC RESRV MASNBRO 0645            58      30/  1     1024.0
OCEAN CREST PIER NOT AVBL
SPRINGMAID  PIER 0748                               1023.1F


................COASTAL AND OFFSHORE BUOYS................


STATION/POSITION TIME  SKY/WX   TEMP    WIND        PRES    VSBY
                                AIR SEA DIR/SP/G
                 (UTC)          (F)     (DEG/KT/KT) (MB)    (MI)
DIMNDSHOAL 41025 0750            74 81   70/ 12/ 16 1023.1F
WVE H/P(F/S)=  5/10 SWL H/P/D(F/S/D)=  5/120/10

CAPE LOOKOUT     0800            64     360/ 11/ 13 1023.3S
ONSLOW BAY 41036 NOT AVBL
ONSLOW BAY 41064 0708            71      40/ 16/ 21 1022.9F
ONSLOW BAY 41159 NOT AVBL
MASNBO INL 41110 0759               74                N/A
WVE H/P(F/S)=  5/ 9 SWL H/P/D(F/S/D)=  2/120/11

WILM HARBR 41108 0800               74                N/A
WVE H/P(F/S)=  4/ 9

27SE WRITB 41037 0708            71 77   70/ 17/ 25 1022.7F
FRYING PAN 41013 0800            73 76   30/ 17/ 21 1021.9
SUNST NRSH 41024 0708            62 74   30/ 10/ 14 1023.6F
CAPRS NRSH 41029 0708            63 74   20/ 16/ 21 1022.6F
EDISTO     41004 0800            73 79   30/ 19/ 23 1020.9


..........OFFSHORE BUOYS BEYOND 100 NM OFFSHORE...........
.....IN A TRIANGLE---HAT TO BERMUDA TO BAHAMAS TO HAT.....


STATION/POSITION TIME  SKY/WX   TEMP    WIND        PRES    VSBY
                                AIR SEA DIR/SP/G
                 (UTC)          (F)     (DEG/KT/KT) (MB)    (MI)
150E HAT   41001 NOT AVBL
W BERMUDA  41048 0800            75 79   70/ 21/ 27 1017.1
ATLANTIC S 41049 0750            80 81  160/ 12/ 14 1018.7F
WVE H/P(F/S)=  6/11 SWL H/P/D(F/S/D)=  5/310/11

E BAHAMAS  41046 0800            82 82  150/ 14/ 17 1016.8
NE BAHAMAS 41047 0800            76 82  180/  8/ 12 1015.4
120E CANVRL41010 NOT AVBL

END




USA.gov is the U.S. government's official web portal to all federal, state and local government web resources and services.